"Pseudo-MPEC" for P11XHFh

Created 2024 Sep 9 0:22:08 UT using Find_Orb

Click here for an explanation of pseudo-MPECs

 
 Astrometry: 
     P11XHFh* C2024 09 01.32942122 01 26.903+11 09 35.50   ~91AM 22.73wXNEOCPF51
     P11XHFh  C2024 09 01.34147822 01 26.200+11 09 22.90   ~91AM 22.38wXNEOCPF51
     P11XHFh  C2024 09 01.35354322 01 25.479+11 09 10.34   ~91AM 22.43wXNEOCPF51
     P11XHFh  C2024 09 01.44880922 01 19.756+11 07 30.16   ~91Jq 22.77GVNEOCPF52
     P11XHFh  C2024 09 01.44963922 01 19.696+11 07 29.32   ~91Jq 22.57GVNEOCPF52
     P11XHFh  C2024 09 05.30225121 57 47.297+09 57 58.87   ~95Ab 22.14wXNEOCPF52
     P11XHFh  C2024 09 05.31550621 57 46.558+09 57 44.22   ~95Ab 22.24wXNEOCPF52
     P11XHFh  C2024 09 05.34189621 57 45.063+09 57 15.04   ~95Ab 22.40wXNEOCPF52

Station data:
(F51) Pan-STARRS 1, Haleakala  (N20.707234 W156.255910)  US/Hawaii.
   Observers J. Bulger, T. Lowe, A. Schultz, M. Willman. Measurers K.
   Chambers, S. Chastel, T. de Boer, L. Denneau, J. Fairlamb, H. Flewelling,
   M. Huber, C.-C. Lin, E. Magnier, Y. Ramanjooloo, R. Wainscoat, R. Weryk.
   1.8-m Ritchey-Chrétien + CCD.
(F52) Pan-STARRS 2, Haleakala  (N20.707382 W156.255910)  US/Hawaii.
   Observers J. Bulger, T. Dukes, T. Lowe, A. Schultz, M. Willman. Measurers
   K. Chambers, S. Chastel, T. de Boer, L. Denneau, J. Fairlamb, H.
   Flewelling, M. Huber, C.-C. Lin, E. Magnier, Y. Ramanjooloo, R. Wainscoat,
   R. Weryk. 1.8-m Ritchey-Chrétien + CCD.

Orbital elements:  P11XHFh
   Perihelion 2025 Oct 26.60013 +/- 45.2 TT = 14:24:11 (JD 2460975.10013)
Epoch 2024 Sep  5.0 TT = JDT 2460558.5   Earth MOID: 0.7189      AutoNEOCP
M 199.09561835 +/- 18               (J2000 ecliptic)
n   0.38623219 +/- 0.00421          Peri.  311.09247 +/- 14
a   1.86739876 +/- 0.0136           Node   190.55327 +/- 0.7
e   0.1015616 +/- 0.00683           Incl.   20.19812 +/- 0.58
P   2.552/932.064d         H 20.04  G  0.15   U  9.1
q 1.67774271 +/- 0.00703    Q 2.05705481 +/- 0.0266
From 8 observations 2024 Sept. 1-5; mean residual 0".07
Residuals in arcseconds: 
240901 F51  .18-  .03-    240901 F52  .06+  .02-    240905 F52  .06+  .01-    
240901 F51  .09+  .02-    240901 F52  .09-  .02+    240905 F52  .02-  .03+    
240901 F51  .12+  .05+    240905 F52  .05-  .02-    

Ephemerides (geocentric):
Date (UTC) HH   RA             Dec           delta  r     elong  mag " sig PA
---- --------  ------------   ------------  ------ ------ -----  --- --------
2024 09 09 00  21 54 36.962   +08 48 18.25  1.0837 2.0470 156.4 22.5 6.00 162
2024 09 09 01  21 54 34.916   +08 47 30.36  1.0838 2.0470 156.4 22.5 6.10 162
2024 09 09 02  21 54 32.872   +08 46 42.45  1.0838 2.0469 156.4 22.5 6.20 162
2024 09 09 03  21 54 30.830   +08 45 54.53  1.0839 2.0469 156.4 22.5 6.30 162
2024 09 09 04  21 54 28.791   +08 45 06.59  1.0840 2.0469 156.4 22.5 6.40 162
2024 09 09 05  21 54 26.754   +08 44 18.64  1.0840 2.0469 156.3 22.5 6.50 162
2024 09 09 06  21 54 24.719   +08 43 30.67  1.0841 2.0469 156.3 22.5 6.61 162
2024 09 09 07  21 54 22.686   +08 42 42.69  1.0842 2.0469 156.3 22.5 6.71 161
2024 09 09 08  21 54 20.656   +08 41 54.70  1.0843 2.0468 156.3 22.5 6.81 161
2024 09 09 09  21 54 18.628   +08 41 06.69  1.0843 2.0468 156.3 22.5 6.92 161
2024 09 09 10  21 54 16.603   +08 40 18.67  1.0844 2.0468 156.2 22.5 7.03 161
2024 09 09 11  21 54 14.579   +08 39 30.64  1.0845 2.0468 156.2 22.5 7.13 161
2024 09 09 12  21 54 12.559   +08 38 42.59  1.0845 2.0468 156.2 22.5 7.24 161
2024 09 09 13  21 54 10.540   +08 37 54.53  1.0846 2.0468 156.2 22.5 7.35 161
2024 09 09 14  21 54 08.524   +08 37 06.46  1.0847 2.0468 156.2 22.5 7.46 161
2024 09 09 15  21 54 06.510   +08 36 18.37  1.0848 2.0467 156.1 22.5 7.57 161
2024 09 09 16  21 54 04.499   +08 35 30.27  1.0848 2.0467 156.1 22.5 7.68 161
2024 09 09 17  21 54 02.490   +08 34 42.15  1.0849 2.0467 156.1 22.5 7.79 161
2024 09 09 18  21 54 00.483   +08 33 54.03  1.0850 2.0467 156.1 22.5 7.90 161
2024 09 09 19  21 53 58.479   +08 33 05.89  1.0851 2.0467 156.1 22.5 8.01 161
2024 09 09 20  21 53 56.477   +08 32 17.73  1.0851 2.0467 156.0 22.5 8.12 161
2024 09 09 21  21 53 54.477   +08 31 29.57  1.0852 2.0466 156.0 22.5 8.24 161
2024 09 09 22  21 53 52.480   +08 30 41.39  1.0853 2.0466 156.0 22.5 8.35 160
2024 09 09 23  21 53 50.485   +08 29 53.20  1.0854 2.0466 156.0 22.5 8.46 160
2024 09 10 00  21 53 48.493   +08 29 04.99  1.0855 2.0466 155.9 22.5 8.58 160
2024 09 10 01  21 53 46.503   +08 28 16.78  1.0855 2.0466 155.9 22.5 8.70 160
2024 09 10 02  21 53 44.515   +08 27 28.55  1.0856 2.0466 155.9 22.5 8.81 160
2024 09 10 03  21 53 42.530   +08 26 40.31  1.0857 2.0465 155.9 22.5 8.93 160
2024 09 10 04  21 53 40.547   +08 25 52.06  1.0858 2.0465 155.9 22.5 9.05 160
2024 09 10 05  21 53 38.567   +08 25 03.79  1.0859 2.0465 155.8 22.5 9.17 160
2024 09 10 06  21 53 36.589   +08 24 15.52  1.0859 2.0465 155.8 22.5 9.29 160
2024 09 10 07  21 53 34.614   +08 23 27.23  1.0860 2.0465 155.8 22.5 9.41 160
2024 09 10 08  21 53 32.641   +08 22 38.93  1.0861 2.0465 155.8 22.5 9.53 160
2024 09 10 09  21 53 30.670   +08 21 50.62  1.0862 2.0464 155.7 22.5 9.65 160
2024 09 10 10  21 53 28.702   +08 21 02.29  1.0863 2.0464 155.7 22.5 9.77 160
2024 09 10 11  21 53 26.737   +08 20 13.96  1.0864 2.0464 155.7 22.5 9.89 160
2024 09 10 12  21 53 24.774   +08 19 25.61  1.0864 2.0464 155.7 22.5 10.0 160
2024 09 10 13  21 53 22.813   +08 18 37.26  1.0865 2.0464 155.7 22.5 10.1 160
2024 09 10 14  21 53 20.855   +08 17 48.89  1.0866 2.0464 155.6 22.5 10.3 159
2024 09 10 15  21 53 18.899   +08 17 00.51  1.0867 2.0464 155.6 22.5 10.4 159
2024 09 10 16  21 53 16.946   +08 16 12.12  1.0868 2.0463 155.6 22.5 10.5 159
2024 09 10 17  21 53 14.995   +08 15 23.72  1.0869 2.0463 155.6 22.5 10.6 159
2024 09 10 18  21 53 13.047   +08 14 35.30  1.0869 2.0463 155.5 22.5 10.8 159
2024 09 10 19  21 53 11.101   +08 13 46.88  1.0870 2.0463 155.5 22.5 10.9 159
2024 09 10 20  21 53 09.157   +08 12 58.45  1.0871 2.0463 155.5 22.5 11.0 159
2024 09 10 21  21 53 07.217   +08 12 10.00  1.0872 2.0463 155.5 22.5 11.2 159
2024 09 10 22  21 53 05.278   +08 11 21.55  1.0873 2.0462 155.4 22.5 11.3 159
2024 09 10 23  21 53 03.343   +08 10 33.08  1.0874 2.0462 155.4 22.5 11.4 159